Volver al catálogo

STARLINK-6373

ActivoComunicacionesVLEO
NORAD 57345·PAYLOAD·🇺🇸 United States

Lanzado Jul 16, 2023 desde Cape Canaveral Space Force Station

Loading…

Próximos Pases (próximas 24 horas)

TLE

ActualizadoSource: CelesTrak SupGP

Época: Sep 14, 2026, 21:35 UTC

1 57345C 23099T   26257.89979167  .00025000  00000+0  90564-3 0  2575
2 57345  43.0026 267.1640 0001983 269.3747 127.3920 15.27560045    16

Sigue STARLINK-6373 en tiempo real con AllMySat

Download on the App Store